カタログに戻る

STARLINK-37205

運用中通信VLEO
NORAD 68332·PAYLOAD·🇺🇸 United States

打ち上げ Mar 22, 2026 から Cape Canaveral Space Force Station

Loading…

次のパス (今後24時間)

TLE

最新Source: CelesTrak SupGP

元期: Sep 15, 2026, 04:18 UTC

1 68332C 26059M   26258.17965278 -.00038291  00000+0 -11315-2 0  2587
2 68332  53.1574 186.2421 0001330  85.2695 279.9651 15.34404615    18

AllMySatでSTARLINK-37205をリアルタイム追跡

Download on the App Store